This is the latest recevied weather packets stored in our database for station/object N3DXC. If no packets are shown the sender has not sent any weather packets the latest 1 day(s).
| Time | Temp. | Humidity | Pressure | Rain* | Wind** | Luminosity | Snow |
|---|---|---|---|---|---|---|---|
| 1778021090 | 19.44° C | 57% | 1008.8 hPa | 0 mm | 2.68 m/s, 260° | - | - |
| 1778020790 | 20° C | 57% | 1008.9 hPa | 0 mm | 3.58 m/s, 251° | - | - |
| 1778020489 | 19.44° C | 56% | 1008.9 hPa | 0 mm | 3.58 m/s, 234° | - | - |
| 1778020189 | 19.44° C | 56% | 1008.9 hPa | 0 mm | 4.47 m/s, 241° | - | - |
| 1778019889 | 19.44° C | 56% | 1008.9 hPa | 0 mm | 3.13 m/s, 270° | - | - |
| 1778019589 | 19.44° C | 54% | 1008.9 hPa | 0 mm | 4.92 m/s, 248° | - | - |
| 1778019289 | 19.44° C | 54% | 1009 hPa | 0 mm | 4.02 m/s, 257° | - | - |
| 1778018989 | 20° C | 54% | 1009 hPa | 0 mm | 6.26 m/s, 282° | - | - |
| 1778018689 | 20° C | 54% | 1008.9 hPa | 0 mm | 6.26 m/s, 292° | - | - |
| 1778018389 | 20° C | 53% | 1008.9 hPa | 0 mm | 2.68 m/s, 291° | - | - |
| 1778018089 | 20° C | 53% | 1008.9 hPa | 0 mm | 3.13 m/s, 261° | - | - |
| 1778017791 | 20° C | 52% | 1008.9 hPa | 0 mm | 2.68 m/s, 295° | - | - |
| 1778017489 | 20° C | 52% | 1008.9 hPa | 0 mm | 3.13 m/s, 255° | - | - |
| 1778017189 | 20° C | 53% | 1008.8 hPa | 0 mm | 2.24 m/s, 296° | - | - |
| 1778016891 | 20° C | 53% | 1008.8 hPa | 0 mm | 2.24 m/s, 289° | - | - |
| 1778016589 | 20° C | 52% | 1008.7 hPa | 0 mm | 2.68 m/s, 277° | - | - |
| 1778016290 | 20° C | 53% | 1008.8 hPa | 0 mm | 2.68 m/s, 285° | - | - |
| 1778015989 | 20.56° C | 53% | 1008.7 hPa | 0 mm | 1.79 m/s, 286° | - | - |
| 1778015690 | 20.56° C | 52% | 1008.8 hPa | 0 mm | 2.68 m/s, 284° | - | - |
| 1778015390 | 20.56° C | 52% | 1008.8 hPa | 0 mm | 3.58 m/s, 253° | - | - |
| 1778015089 | 20.56° C | 53% | 1008.8 hPa | 0 mm | 1.79 m/s, 268° | - | - |
| 1778014789 | 20.56° C | 53% | 1008.7 hPa | 0 mm | 3.58 m/s, 260° | - | - |
| 1778014489 | 20° C | 51% | 1008.8 hPa | 0 mm | 4.47 m/s, 258° | - | - |
| 1778014189 | 20° C | 51% | 1008.8 hPa | 0 mm | 3.13 m/s, 309° | - | - |
| 1778013889 | 20° C | 52% | 1008.8 hPa | 0 mm | 4.92 m/s, 270° | - | - |
* Rain latest hour (hover to see other rain measurements)
** Current wind speed in m/s (hover to see current wind gust speed)